| time (UTC) | temp C | wind direction | speed KPH | gust KPH | rain 1hr cm | rain 24hr cm | rain mn cm | humidity % | barometer mb |
| 20260421010016 | -3 | 0.0 | 0.0 | 0.00 | 0.13 | 0.13 | 90 | 1023.3 | |
| 20260421005516 | -3 | 0.0 | 0.0 | 0.00 | 0.13 | 0.13 | 90 | 1023.2 | |
| 20260421005016 | -3 | 0.0 | 0.0 | 0.00 | 0.13 | 0.13 | 90 | 1023.1 | |
| 20260421004515 | -3 | 0.0 | 0.0 | 0.00 | 0.13 | 0.13 | 90 | 1023.0 | |
| 20260421004015 | -3 | 0.0 | 0.0 | 0.00 | 0.13 | 0.13 | 89 | 1023.0 | |
| 20260421003515 | -2 | 0.0 | 0.0 | 0.00 | 0.13 | 0.13 | 88 | 1022.9 | |
| 20260421003015 | -2 | 0.0 | 0.0 | 0.00 | 0.13 | 0.13 | 88 | 1022.8 | |
| 20260421002516 | -2 | 0.0 | 0.0 | 0.00 | 0.13 | 0.13 | 87 | 1022.7 | |
| 20260421002035 | -2 | 0.0 | 0.0 | 0.00 | 0.13 | 0.13 | 85 | 1022.6 | |
| 20260421001516 | -2 | 0.0 | 0.0 | 0.00 | 0.13 | 0.13 | 85 | 1022.6 | |
| 20260421001036 | -2 | 0.0 | 0.0 | 0.00 | 0.13 | 0.13 | 82 | 1022.4 | |
| 20260421000516 | -2 | 0.0 | 1.6 | 0.00 | 0.13 | 0.13 | 79 | 1022.3 | |
| 20260421000016 | -2 | 0.0 | 3.2 | 0.00 | 0.13 | 0.13 | 78 | 1022.2 | |
| 20260420235516 | -2 | 315 | 1.6 | 4.8 | 0.00 | 0.13 | 0.13 | 78 | 1022.3 |
| 20260420235015 | -1 | 0.0 | 4.8 | 0.00 | 0.13 | 0.13 | 78 | 1022.3 | |
| 20260420234516 | -1 | 0.0 | 3.2 | 0.00 | 0.13 | 0.13 | 77 | 1022.2 | |
| 20260420234016 | -1 | 315 | 1.6 | 4.8 | 0.00 | 0.13 | 0.13 | 76 | 1022.3 |
| 20260420233515 | -1 | 315 | 1.6 | 6.4 | 0.00 | 0.13 | 0.13 | 76 | 1022.2 |
| 20260420233036 | -1 | 315 | 1.6 | 11.3 | 0.00 | 0.13 | 0.13 | 75 | 1022.2 |
| 20260420232515 | -1 | 293 | 1.6 | 6.4 | 0.00 | 0.13 | 0.13 | 75 | 1022.1 |
| 20260420232016 | -1 | 315 | 3.2 | 6.4 | 0.00 | 0.13 | 0.13 | 72 | 1022.1 |
| 20260420231516 | -1 | 315 | 4.8 | 11.3 | 0.00 | 0.13 | 0.13 | 73 | 1022.0 |
| 20260420231015 | 0 | 315 | 4.8 | 12.9 | 0.00 | 0.13 | 0.13 | 72 | 1021.9 |
| 20260420230516 | 0 | 315 | 6.4 | 16.1 | 0.00 | 0.13 | 0.13 | 71 | 1021.8 |
| 20260420230056 | 0 | 315 | 4.8 | 9.7 | 0.00 | 0.13 | 0.13 | 71 | 1021.8 |
| 20260420225515 | 0 | 315 | 4.8 | 14.5 | 0.00 | 0.15 | 0.13 | 72 | 1021.6 |
| 20260420225035 | 0 | 315 | 3.2 | 8.0 | 0.00 | 0.15 | 0.13 | 73 | 1021.6 |
| 20260420224516 | 0 | 315 | 1.6 | 11.3 | 0.00 | 0.15 | 0.13 | 75 | 1021.6 |
| 20260420224015 | 0 | 315 | 3.2 | 11.3 | 0.00 | 0.15 | 0.13 | 74 | 1021.6 |
| 20260420223556 | 0 | 315 | 3.2 | 12.9 | 0.00 | 0.15 | 0.13 | 73 | 1021.5 |
| 20260420223015 | 0 | 315 | 3.2 | 6.4 | 0.00 | 0.15 | 0.13 | 73 | 1021.5 |
| 20260420222515 | 0 | 315 | 1.6 | 6.4 | 0.00 | 0.15 | 0.13 | 74 | 1021.5 |
| 20260420222016 | 0 | 315 | 3.2 | 11.3 | 0.00 | 0.15 | 0.13 | 73 | 1021.4 |
| 20260420221515 | 0 | 315 | 3.2 | 11.3 | 0.00 | 0.15 | 0.13 | 73 | 1021.4 |
| 20260420221016 | 0 | 315 | 3.2 | 8.0 | 0.00 | 0.15 | 0.13 | 73 | 1021.4 |
| 20260420220515 | 0 | 315 | 3.2 | 8.0 | 0.00 | 0.15 | 0.13 | 72 | 1021.3 |
| 20260420220016 | 0 | 315 | 3.2 | 8.0 | 0.00 | 0.15 | 0.13 | 71 | 1021.3 |
| 20260420215516 | 0 | 315 | 8.0 | 20.9 | 0.00 | 0.15 | 0.13 | 70 | 1021.2 |
| 20260420215015 | 0 | 315 | 4.8 | 14.5 | 0.00 | 0.15 | 0.13 | 72 | 1021.1 |
| 20260420214516 | 0 | 293 | 4.8 | 11.3 | 0.00 | 0.15 | 0.13 | 72 | 1021.1 |
| 20260420214016 | 0 | 315 | 4.8 | 9.7 | 0.00 | 0.15 | 0.13 | 75 | 1021.0 |
| 20260420213515 | 0 | 315 | 6.4 | 11.3 | 0.00 | 0.15 | 0.13 | 73 | 1021.0 |
| 20260420213052 | 0 | 315 | 3.2 | 11.3 | 0.00 | 0.15 | 0.13 | 75 | 1021.0 |
| 20260420212516 | 0 | 315 | 4.8 | 9.7 | 0.03 | 0.15 | 0.13 | 75 | 1020.9 |
| 20260420212015 | 0 | 293 | 3.2 | 9.7 | 0.03 | 0.15 | 0.13 | 75 | 1020.8 |
| 20260420211536 | 0 | 315 | 4.8 | 12.9 | 0.03 | 0.15 | 0.13 | 75 | 1020.7 |
| 20260420211015 | 0 | 315 | 3.2 | 11.3 | 0.03 | 0.15 | 0.13 | 73 | 1020.6 |
| 20260420210516 | 0 | 315 | 9.7 | 19.3 | 0.03 | 0.15 | 0.13 | 71 | 1020.6 |
| 20260420210015 | 0 | 315 | 6.4 | 16.1 | 0.03 | 0.15 | 0.13 | 71 | 1020.5 |
| 20260420205516 | 0 | 315 | 4.8 | 12.9 | 0.03 | 0.18 | 0.13 | 75 | 1020.5 |
| 20260420205015 | 0 | 315 | 3.2 | 11.3 | 0.03 | 0.18 | 0.13 | 75 | 1020.4 |
| 20260420204536 | 0 | 315 | 3.2 | 12.9 | 0.03 | 0.18 | 0.13 | 74 | 1020.4 |
| 20260420204016 | 0 | 315 | 3.2 | 12.9 | 0.03 | 0.18 | 0.13 | 73 | 1020.3 |
| 20260420203516 | 1 | 315 | 3.2 | 14.5 | 0.03 | 0.18 | 0.13 | 76 | 1020.3 |
| 20260420203015 | 1 | 315 | 4.8 | 11.3 | 0.03 | 0.18 | 0.13 | 75 | 1020.2 |
| 20260420202536 | 1 | 315 | 6.4 | 12.9 | 0.00 | 0.15 | 0.10 | 76 | 1020.1 |
| 20260420202016 | 0 | 315 | 4.8 | 16.1 | 0.00 | 0.15 | 0.10 | 79 | 1020.1 |
| 20260420201516 | 0 | 315 | 4.8 | 14.5 | 0.00 | 0.15 | 0.10 | 81 | 1020.2 |
| 20260420201016 | 0 | 315 | 4.8 | 11.3 | 0.00 | 0.15 | 0.10 | 83 | 1020.2 |
| 20260420200536 | 0 | 315 | 8.0 | 12.9 | 0.00 | 0.15 | 0.10 | 82 | 1020.2 |
| 20260420200016 | 0 | 315 | 8.0 | 17.7 | 0.00 | 0.15 | 0.10 | 79 | 1020.2 |
| 20260420195536 | 0 | 315 | 6.4 | 20.9 | 0.00 | 0.15 | 0.10 | 81 | 1020.2 |
| 20260420195036 | 0 | 315 | 6.4 | 12.9 | 0.03 | 0.15 | 0.10 | 81 | 1020.0 |
| 20260420194516 | 0 | 315 | 3.2 | 9.7 | 0.03 | 0.15 | 0.10 | 83 | 1019.9 |
| 20260420194016 | 0 | 315 | 3.2 | 8.0 | 0.03 | 0.15 | 0.10 | 82 | 1020.0 |
| 20260420193516 | 0 | 315 | 3.2 | 6.4 | 0.03 | 0.15 | 0.10 | 83 | 1019.9 |
| 20260420193016 | 0 | 315 | 4.8 | 14.5 | 0.03 | 0.15 | 0.10 | 81 | 1020.0 |
| 20260420192515 | 0 | 315 | 6.4 | 16.1 | 0.03 | 0.15 | 0.10 | 80 | 1020.1 |
| 20260420192016 | 0 | 315 | 6.4 | 19.3 | 0.03 | 0.15 | 0.10 | 80 | 1020.1 |
| 20260420191516 | 0 | 225 | 3.2 | 8.0 | 0.03 | 0.15 | 0.10 | 80 | 1020.2 |
| 20260420191016 | 0 | 293 | 6.4 | 12.9 | 0.03 | 0.15 | 0.10 | 81 | 1020.2 |
| 20260420190516 | 0 | 315 | 6.4 | 19.3 | 0.03 | 0.15 | 0.10 | 83 | 1020.3 |
| 20260420190016 | 0 | 315 | 6.4 | 12.9 | 0.05 | 0.18 | 0.10 | 85 | 1020.3 |
| 20260420185516 | 0 | 315 | 3.2 | 14.5 | 0.05 | 0.18 | 0.10 | 88 | 1020.3 |
| 20260420185016 | -1 | 293 | 3.2 | 9.7 | 0.03 | 0.15 | 0.08 | 87 | 1020.4 |
| 20260420184516 | 0 | 315 | 4.8 | 12.9 | 0.03 | 0.15 | 0.08 | 85 | 1020.4 |
| 20260420184016 | 0 | 315 | 3.2 | 9.7 | 0.03 | 0.15 | 0.08 | 86 | 1020.4 |
| 20260420183516 | 0 | 315 | 6.4 | 14.5 | 0.03 | 0.15 | 0.08 | 85 | 1020.3 |
| 20260420183016 | 0 | 315 | 3.2 | 9.7 | 0.03 | 0.15 | 0.08 | 86 | 1020.4 |
| 20260420182516 | 0 | 203 | 1.6 | 6.4 | 0.03 | 0.15 | 0.08 | 88 | 1020.4 |
| 20260420182016 | 0 | 315 | 8.0 | 12.9 | 0.03 | 0.15 | 0.08 | 87 | 1020.4 |
| 20260420181516 | 0 | 315 | 9.7 | 17.7 | 0.03 | 0.15 | 0.08 | 88 | 1020.4 |
| 20260420181016 | 0 | 315 | 6.4 | 16.1 | 0.03 | 0.15 | 0.08 | 86 | 1020.3 |
| 20260420180516 | 0 | 315 | 8.0 | 17.7 | 0.03 | 0.18 | 0.08 | 84 | 1020.3 |
| 20260420180016 | 0 | 315 | 3.2 | 11.3 | 0.00 | 0.15 | 0.05 | 87 | 1020.1 |
| 20260420175516 | 0 | 315 | 4.8 | 14.5 | 0.00 | 0.15 | 0.05 | 86 | 1020.0 |
| 20260420175016 | 0 | 315 | 8.0 | 19.3 | 0.00 | 0.15 | 0.05 | 85 | 1020.0 |
| 20260420174516 | 0 | 315 | 8.0 | 16.1 | 0.00 | 0.15 | 0.05 | 84 | 1019.9 |
| 20260420174016 | 0 | 270 | 4.8 | 16.1 | 0.00 | 0.15 | 0.05 | 85 | 1019.9 |
| 20260420173516 | 0 | 315 | 3.2 | 8.0 | 0.00 | 0.15 | 0.05 | 89 | 1019.9 |
| 20260420173016 | -1 | 315 | 4.8 | 14.5 | 0.00 | 0.15 | 0.05 | 86 | 1020.0 |
| 20260420172516 | -1 | 315 | 6.4 | 14.5 | 0.00 | 0.15 | 0.05 | 86 | 1020.0 |
| 20260420172015 | 0 | 315 | 11.3 | 20.9 | 0.00 | 0.15 | 0.05 | 85 | 1020.0 |
| 20260420171516 | 0 | 315 | 8.0 | 19.3 | 0.00 | 0.15 | 0.05 | 86 | 1020.0 |
| 20260420171016 | 0 | 315 | 6.4 | 14.5 | 0.00 | 0.15 | 0.05 | 88 | 1019.8 |
| 20260420170516 | 0 | 315 | 4.8 | 16.1 | 0.03 | 0.15 | 0.05 | 90 | 1019.8 |
| 20260420170036 | 0 | 315 | 6.4 | 16.1 | 0.03 | 0.15 | 0.05 | 93 | 1019.8 |
| 20260420165516 | -1 | 293 | 1.6 | 4.8 | 0.03 | 0.15 | 0.05 | 95 | 1019.9 |
| 20260420165015 | -1 | 315 | 1.6 | 6.4 | 0.05 | 0.15 | 0.05 | 93 | 1019.8 |
| 20260420164515 | -1 | 315 | 6.4 | 12.9 | 0.05 | 0.15 | 0.05 | 92 | 1019.9 |
| 20260420164016 | -1 | 315 | 9.7 | 17.7 | 0.05 | 0.15 | 0.05 | 89 | 1019.9 |
| 20260420163536 | 0 | 315 | 9.7 | 29.0 | 0.05 | 0.15 | 0.05 | 88 | 1019.9 |
| 20260420163016 | 0 | 315 | 9.7 | 17.7 | 0.05 | 0.15 | 0.05 | 89 | 1019.8 |
| 20260420162516 | 0 | 315 | 8.0 | 16.1 | 0.05 | 0.15 | 0.05 | 88 | 1019.7 |
| 20260420162016 | 0 | 315 | 6.4 | 16.1 | 0.05 | 0.15 | 0.05 | 86 | 1019.7 |
| 20260420161556 | 0 | 315 | 6.4 | 17.7 | 0.05 | 0.18 | 0.05 | 89 | 1019.7 |
| 20260420161016 | 0 | 315 | 9.7 | 17.7 | 0.05 | 0.18 | 0.05 | 86 | 1019.8 |
| 20260420160516 | 0 | 315 | 8.0 | 20.9 | 0.03 | 0.18 | 0.03 | 87 | 1019.7 |
| 20260420160016 | 0 | 315 | 9.7 | 16.1 | 0.03 | 0.23 | 0.03 | 85 | 1019.7 |
| 20260420155516 | 0 | 315 | 8.0 | 17.7 | 0.03 | 0.25 | 0.03 | 87 | 1019.7 |
| 20260420155016 | 0 | 315 | 4.8 | 9.7 | 0.00 | 0.28 | 0.00 | 88 | 1019.6 |
| 20260420154516 | 0 | 293 | 4.8 | 9.7 | 0.00 | 0.30 | 0.00 | 86 | 1019.6 |
| 20260420154036 | 0 | 315 | 4.8 | 14.5 | 0.00 | 0.33 | 0.00 | 88 | 1019.6 |
| 20260420153516 | 0 | 293 | 1.6 | 11.3 | 0.00 | 0.36 | 0.00 | 89 | 1019.6 |
| 20260420153016 | -1 | 293 | 3.2 | 9.7 | 0.00 | 0.41 | 0.00 | 89 | 1019.6 |
| 20260420152516 | -1 | 315 | 4.8 | 12.9 | 0.00 | 0.41 | 0.00 | 89 | 1019.6 |
| 20260420152016 | -1 | 293 | 4.8 | 11.3 | 0.00 | 0.43 | 0.00 | 90 | 1019.5 |
| 20260420151516 | -1 | 315 | 4.8 | 14.5 | 0.00 | 0.46 | 0.00 | 90 | 1019.5 |
| 20260420151015 | -1 | 315 | 4.8 | 12.9 | 0.00 | 0.46 | 0.00 | 90 | 1019.5 |
| 20260420150516 | -1 | 315 | 11.3 | 27.4 | 0.00 | 0.48 | 0.00 | 88 | 1019.5 |
| 20260420150016 | 0 | 315 | 8.0 | 19.3 | 0.00 | 0.48 | 0.00 | 88 | 1019.4 |
| 20260420145516 | 0 | 315 | 6.4 | 16.1 | 0.00 | 0.48 | 0.00 | 86 | 1019.3 |
| 20260420145016 | 0 | 315 | 6.4 | 14.5 | 0.00 | 0.48 | 0.00 | 83 | 1019.2 |
| 20260420144536 | 0 | 315 | 4.8 | 16.1 | 0.00 | 0.51 | 0.00 | 85 | 1019.1 |
| 20260420144016 | 0 | 315 | 3.2 | 9.7 | 0.00 | 0.51 | 0.00 | 85 | 1019.1 |
| 20260420143556 | 0 | 315 | 3.2 | 11.3 | 0.00 | 0.51 | 0.00 | 86 | 1019.2 |
| 20260420143016 | 0 | 315 | 6.4 | 12.9 | 0.00 | 0.51 | 0.00 | 86 | 1019.1 |
| 20260420142516 | -1 | 315 | 6.4 | 12.9 | 0.00 | 0.51 | 0.00 | 86 | 1019.1 |
| 20260420142016 | -1 | 315 | 8.0 | 22.5 | 0.00 | 0.51 | 0.00 | 85 | 1019.0 |
| 20260420141556 | 0 | 315 | 8.0 | 14.5 | 0.00 | 0.51 | 0.00 | 85 | 1019.0 |
| 20260420141016 | 0 | 315 | 8.0 | 14.5 | 0.00 | 0.51 | 0.00 | 85 | 1018.9 |
| 20260420140516 | -1 | 315 | 4.8 | 9.7 | 0.00 | 0.51 | 0.00 | 87 | 1018.9 |
| 20260420140016 | -1 | 315 | 6.4 | 12.9 | 0.00 | 0.53 | 0.00 | 88 | 1018.8 |
| 20260420135516 | -1 | 315 | 6.4 | 12.9 | 0.00 | 0.53 | 0.00 | 87 | 1018.7 |
| 20260420135016 | -1 | 293 | 4.8 | 17.7 | 0.00 | 0.53 | 0.00 | 89 | 1018.6 |
| 20260420134516 | -1 | 315 | 9.7 | 17.7 | 0.00 | 0.56 | 0.00 | 88 | 1018.5 |
| 20260420134016 | -1 | 315 | 9.7 | 20.9 | 0.00 | 0.56 | 0.00 | 88 | 1018.5 |
| 20260420133516 | 0 | 315 | 6.4 | 17.7 | 0.00 | 0.56 | 0.00 | 89 | 1018.5 |
| 20260420133016 | 0 | 315 | 6.4 | 16.1 | 0.00 | 0.56 | 0.00 | 89 | 1018.4 |
| 20260420132516 | 0 | 315 | 9.7 | 17.7 | 0.00 | 0.58 | 0.00 | 89 | 1018.3 |
| 20260420132016 | -1 | 315 | 8.0 | 25.7 | 0.00 | 0.58 | 0.00 | 91 | 1018.3 |
| 20260420131516 | -1 | 315 | 9.7 | 24.1 | 0.00 | 0.58 | 0.00 | 91 | 1018.2 |
| 20260420131016 | -1 | 315 | 8.0 | 24.1 | 0.00 | 0.64 | 0.00 | 92 | 1018.2 |
| 20260420130516 | -1 | 315 | 9.7 | 24.1 | 0.00 | 0.69 | 0.00 | 92 | 1018.2 |
| 20260420130016 | 0 | 315 | 4.8 | 12.9 | 0.00 | 0.71 | 0.00 | 93 | 1018.1 |
| 20260420125516 | -1 | 315 | 3.2 | 11.3 | 0.00 | 0.74 | 0.00 | 94 | 1018.1 |
| 20260420125016 | -1 | 315 | 4.8 | 12.9 | 0.00 | 0.76 | 0.00 | 94 | 1018.1 |
| 20260420124516 | -1 | 293 | 3.2 | 11.3 | 0.00 | 0.76 | 0.00 | 94 | 1018.1 |
| 20260420124016 | -1 | 68 | 3.2 | 14.5 | 0.00 | 0.76 | 0.00 | 94 | 1018.0 |
| 20260420123515 | -1 | 68 | 3.2 | 8.0 | 0.00 | 0.76 | 0.00 | 95 | 1017.9 |
| 20260420123016 | -1 | 293 | 1.6 | 6.4 | 0.00 | 0.76 | 0.00 | 95 | 1017.9 |
| 20260420122516 | -2 | 315 | 1.6 | 9.7 | 0.00 | 0.79 | 0.00 | 95 | 1017.9 |
| 20260420122016 | -2 | 315 | 6.4 | 12.9 | 0.00 | 0.79 | 0.00 | 95 | 1017.9 |
| 20260420121515 | -2 | 315 | 6.4 | 12.9 | 0.00 | 0.81 | 0.00 | 95 | 1017.8 |
| 20260420121016 | -2 | 293 | 4.8 | 17.7 | 0.00 | 0.81 | 0.00 | 95 | 1017.9 |
| 20260420120516 | -2 | 315 | 6.4 | 17.7 | 0.00 | 0.84 | 0.00 | 95 | 1017.9 |
| 20260420120016 | -2 | 0.0 | 4.8 | 0.00 | 0.86 | 0.00 | 96 | 1017.8 | |
| 20260420115516 | -2 | 315 | 3.2 | 8.0 | 0.00 | 0.89 | 0.00 | 97 | 1017.8 |
| 20260420115015 | -2 | 315 | 3.2 | 8.0 | 0.00 | 0.91 | 0.00 | 97 | 1017.7 |
| 20260420114516 | -2 | 315 | 4.8 | 9.7 | 0.00 | 0.94 | 0.00 | 97 | 1017.6 |
| 20260420114016 | -2 | 315 | 3.2 | 6.4 | 0.00 | 0.94 | 0.00 | 97 | 1017.5 |
| 20260420113536 | -2 | 315 | 1.6 | 3.2 | 0.00 | 0.97 | 0.00 | 98 | 1017.3 |
| 20260420113016 | -2 | 0.0 | 3.2 | 0.00 | 0.99 | 0.00 | 98 | 1017.3 | |
| 20260420112536 | -2 | 0.0 | 1.6 | 0.00 | 1.04 | 0.00 | 98 | 1017.2 | |
| 20260420112016 | -2 | 315 | 1.6 | 3.2 | 0.00 | 1.04 | 0.00 | 98 | 1017.2 |
| 20260420111536 | -2 | 0.0 | 1.6 | 0.00 | 1.04 | 0.00 | 98 | 1017.1 | |
| 20260420111015 | -2 | 0.0 | 1.6 | 0.00 | 1.04 | 0.00 | 98 | 1017.0 | |
| 20260420110536 | -2 | 0.0 | 0.0 | 0.00 | 1.04 | 0.00 | 98 | 1016.9 | |
| 20260420110016 | -3 | 0.0 | 0.0 | 0.00 | 1.04 | 0.00 | 98 | 1016.8 | |
| 20260420105516 | -3 | 0.0 | 0.0 | 0.00 | 1.07 | 0.00 | 98 | 1016.7 | |
| 20260420105016 | -3 | 0.0 | 0.0 | 0.00 | 1.07 | 0.00 | 98 | 1016.7 | |
| 20260420104516 | -3 | 0.0 | 0.0 | 0.00 | 1.07 | 0.00 | 98 | 1016.6 | |
| 20260420104016 | -3 | 0.0 | 0.0 | 0.00 | 1.07 | 0.00 | 98 | 1016.4 | |
| 20260420103516 | -3 | 0.0 | 0.0 | 0.00 | 1.07 | 0.00 | 98 | 1016.4 | |
| 20260420103015 | -3 | 0.0 | 0.0 | 0.00 | 1.07 | 0.00 | 97 | 1016.3 | |
| 20260420102516 | -3 | 0.0 | 0.0 | 0.00 | 1.07 | 0.00 | 97 | 1016.2 | |
| 20260420102016 | -3 | 0.0 | 0.0 | 0.00 | 1.07 | 0.00 | 97 | 1016.1 | |
| 20260420101516 | -3 | 0.0 | 0.0 | 0.00 | 1.07 | 0.00 | 97 | 1016.0 | |
| 20260420101016 | -3 | 0.0 | 0.0 | 0.00 | 1.09 | 0.00 | 97 | 1016.0 | |
| 20260420100515 | -3 | 0.0 | 0.0 | 0.00 | 1.09 | 0.00 | 97 | 1015.8 | |
| 20260420100016 | -3 | 0.0 | 0.0 | 0.00 | 1.09 | 0.00 | 97 | 1015.8 | |
| 20260420095516 | -3 | 0.0 | 0.0 | 0.00 | 1.09 | 0.00 | 97 | 1015.8 | |
| 20260420095016 | -3 | 0.0 | 0.0 | 0.00 | 1.09 | 0.00 | 97 | 1015.8 | |
| 20260420094516 | -3 | 0.0 | 0.0 | 0.00 | 1.09 | 0.00 | 97 | 1015.7 | |
| 20260420094016 | -3 | 0.0 | 0.0 | 0.00 | 1.09 | 0.00 | 97 | 1015.8 | |
| 20260420093516 | -3 | 0.0 | 0.0 | 0.00 | 1.09 | 0.00 | 96 | 1015.8 | |
| 20260420093016 | -3 | 0.0 | 0.0 | 0.00 | 1.09 | 0.00 | 96 | 1015.7 | |
| 20260420092516 | -3 | 0.0 | 0.0 | 0.00 | 1.09 | 0.00 | 96 | 1015.7 | |
| 20260420092016 | -3 | 0.0 | 0.0 | 0.00 | 1.09 | 0.00 | 96 | 1015.7 | |
| 20260420091556 | -3 | 0.0 | 3.2 | 0.00 | 1.09 | 0.00 | 96 | 1015.6 | |
| 20260420091016 | -2 | 0.0 | 1.6 | 0.00 | 1.09 | 0.00 | 96 | 1015.5 | |
| 20260420090516 | -2 | 0.0 | 1.6 | 0.00 | 1.09 | 0.00 | 96 | 1015.5 | |
| 20260420090016 | -2 | 315 | 1.6 | 4.8 | 0.00 | 1.09 | 0.00 | 96 | 1015.4 |
| 20260420085516 | -2 | 0.0 | 1.6 | 0.00 | 1.09 | 0.00 | 96 | 1015.4 | |
| 20260420085015 | -2 | 315 | 1.6 | 8.0 | 0.00 | 1.09 | 0.00 | 96 | 1015.3 |
| 20260420084516 | -2 | 315 | 1.6 | 6.4 | 0.00 | 1.09 | 0.00 | 96 | 1015.3 |
| 20260420084016 | -2 | 315 | 1.6 | 6.4 | 0.00 | 1.09 | 0.00 | 96 | 1015.3 |
| 20260420083516 | -2 | 315 | 1.6 | 8.0 | 0.00 | 1.09 | 0.00 | 96 | 1015.3 |
| 20260420083016 | -2 | 315 | 3.2 | 11.3 | 0.00 | 1.09 | 0.00 | 96 | 1015.2 |
| 20260420082516 | -2 | 315 | 3.2 | 9.7 | 0.00 | 1.09 | 0.00 | 96 | 1015.1 |
| 20260420082036 | -2 | 293 | 1.6 | 6.4 | 0.00 | 1.09 | 0.00 | 96 | 1015.1 |
| 20260420081516 | -2 | 315 | 4.8 | 12.9 | 0.00 | 1.09 | 0.00 | 96 | 1015.1 |
| 20260420081016 | -2 | 315 | 3.2 | 6.4 | 0.00 | 1.09 | 0.00 | 97 | 1015.0 |
| 20260420080516 | -2 | 315 | 1.6 | 4.8 | 0.00 | 1.09 | 0.00 | 97 | 1015.1 |
| 20260420080016 | -2 | 315 | 1.6 | 6.4 | 0.00 | 1.09 | 0.00 | 97 | 1015.1 |
| 20260420075516 | -2 | 315 | 1.6 | 6.4 | 0.00 | 1.12 | 0.00 | 96 | 1015.1 |
| 20260420075016 | -2 | 315 | 1.6 | 8.0 | 0.00 | 1.12 | 0.00 | 96 | 1015.1 |
| 20260420074516 | -2 | 315 | 3.2 | 8.0 | 0.00 | 1.12 | 0.00 | 96 | 1015.1 |
| 20260420074016 | -2 | 315 | 3.2 | 8.0 | 0.00 | 1.12 | 0.00 | 97 | 1015.0 |
| 20260420073516 | -2 | 315 | 3.2 | 11.3 | 0.00 | 1.12 | 0.00 | 97 | 1015.0 |
| 20260420073036 | -2 | 315 | 3.2 | 9.7 | 0.00 | 1.12 | 0.00 | 97 | 1015.0 |
| 20260420072516 | -2 | 315 | 3.2 | 8.0 | 0.00 | 1.12 | 0.00 | 97 | 1015.0 |
| 20260420072036 | -2 | 315 | 3.2 | 9.7 | 0.00 | 1.12 | 0.00 | 97 | 1015.0 |
| 20260420071516 | -2 | 315 | 3.2 | 8.0 | 0.00 | 1.14 | 0.00 | 98 | 1014.9 |
| 20260420071016 | -3 | 315 | 3.2 | 9.7 | 0.00 | 1.14 | 0.00 | 98 | 1014.9 |
| 20260420070516 | -3 | 315 | 1.6 | 6.4 | 0.00 | 1.14 | 0.00 | 98 | 1014.9 |
| 20260420070016 | -3 | 0.0 | 3.2 | 0.00 | 1.17 | 0.00 | 98 | 1014.9 | |
| 20260420065516 | -3 | 0.0 | 4.8 | 0.00 | 1.17 | 0.00 | 98 | 1014.9 | |
| 20260420065016 | -3 | 0.0 | 3.2 | 0.00 | 1.17 | 0.00 | 98 | 1014.9 | |
| 20260420064516 | -3 | 0.0 | 1.6 | 0.00 | 1.17 | 0.00 | 97 | 1014.9 | |
| 20260420064016 | -3 | 0.0 | 1.6 | 0.00 | 1.17 | 0.00 | 98 | 1014.9 | |
| 20260420063516 | -3 | 0.0 | 1.6 | 0.00 | 1.19 | 0.00 | 98 | 1014.8 | |
| 20260420063016 | -3 | 0.0 | 0.0 | 0.00 | 1.19 | 0.00 | 97 | 1014.8 | |
| 20260420062516 | -3 | 0.0 | 0.0 | 0.00 | 1.19 | 0.00 | 97 | 1014.8 | |
| 20260420062016 | -3 | 0.0 | 1.6 | 0.00 | 1.19 | 0.00 | 97 | 1014.9 | |
| 20260420061516 | -3 | 0.0 | 0.0 | 0.00 | 1.19 | 0.00 | 97 | 1015.0 | |
| 20260420061020 | -3 | 0.0 | 1.6 | 0.00 | 1.19 | 0.00 | 97 | 1014.9 | |
| 20260420060540 | -2 | 0.0 | 0.0 | 0.00 | 1.22 | 0.00 | 97 | 1014.9 | |
| 20260420060021 | -2 | 0.0 | 0.0 | 0.00 | 1.22 | 0.00 | 97 | 1014.9 | |
| 20260420055516 | -2 | 0.0 | 0.0 | 0.00 | 1.22 | 0.00 | 97 | 1015.0 | |
| 20260420055016 | -2 | 0.0 | 0.0 | 0.00 | 1.22 | 0.00 | 97 | 1015.1 | |
| 20260420054516 | -2 | 0.0 | 1.6 | 0.00 | 1.22 | 0.00 | 97 | 1015.0 | |
| 20260420054016 | -2 | 0.0 | 1.6 | 0.00 | 1.22 | 0.00 | 97 | 1015.0 | |
| 20260420053516 | -2 | 0.0 | 1.6 | 0.00 | 1.22 | 0.00 | 97 | 1015.0 | |
| 20260420053016 | -2 | 293 | 1.6 | 6.4 | 0.00 | 1.22 | 0.00 | 97 | 1015.0 |
| 20260420052516 | -2 | 315 | 1.6 | 4.8 | 0.00 | 1.22 | 0.00 | 97 | 1015.0 |
| 20260420052016 | -2 | 293 | 1.6 | 9.7 | 0.00 | 1.22 | 0.00 | 97 | 1015.0 |
| 20260420051516 | -2 | 315 | 1.6 | 4.8 | 0.00 | 1.22 | 0.00 | 97 | 1015.0 |
| 20260420051016 | -2 | 338 | 1.6 | 6.4 | 0.00 | 1.22 | 0.00 | 97 | 1015.0 |
| 20260420050516 | -2 | 315 | 3.2 | 9.7 | 0.00 | 1.22 | 0.00 | 97 | 1015.0 |
| 20260420050016 | -2 | 315 | 1.6 | 6.4 | 0.00 | 1.22 | 0.00 | 97 | 1015.0 |
| 20260420045516 | -2 | 315 | 3.2 | 11.3 | 0.00 | 1.22 | 0.00 | 98 | 1014.9 |
| 20260420045036 | -2 | 315 | 3.2 | 8.0 | 0.00 | 1.22 | 0.00 | 98 | 1015.0 |
| 20260420044516 | -2 | 315 | 3.2 | 9.7 | 0.00 | 1.22 | 0.00 | 98 | 1015.0 |
| 20260420044016 | -2 | 315 | 4.8 | 9.7 | 0.00 | 1.22 | 0.00 | 98 | 1014.9 |
| 20260420043516 | -2 | 315 | 3.2 | 8.0 | 0.00 | 1.22 | 0.00 | 98 | 1014.9 |
| 20260420043016 | -2 | 315 | 1.6 | 6.4 | 0.00 | 1.22 | 0.00 | 98 | 1014.8 |
| 20260420042557 | -1 | 315 | 3.2 | 8.0 | 0.00 | 1.22 | 0.00 | 99 | 1014.7 |
| 20260420042036 | -2 | 315 | 3.2 | 11.3 | 0.00 | 1.22 | 0.00 | 99 | 1014.8 |
| 20260420041516 | -2 | 315 | 3.2 | 8.0 | 0.00 | 1.22 | 0.00 | 99 | 1014.8 |
| 20260420041016 | -2 | 315 | 1.6 | 4.8 | 0.00 | 1.22 | 0.00 | 99 | 1014.6 |
| 20260420040516 | -2 | 315 | 1.6 | 8.0 | 0.00 | 1.22 | 0.00 | 99 | 1014.6 |
| 20260420040036 | -2 | 315 | 3.2 | 9.7 | 0.00 | 1.22 | 1.22 | 99 | 1014.5 |
| 20260420035516 | -2 | 315 | 1.6 | 3.2 | 0.00 | 1.22 | 1.22 | 99 | 1014.5 |
| 20260420035016 | -2 | 0.0 | 1.6 | 0.00 | 1.22 | 1.22 | 99 | 1014.4 | |
| 20260420034516 | -2 | 315 | 1.6 | 4.8 | 0.00 | 1.22 | 1.22 | 99 | 1014.4 |
| 20260420034016 | -2 | 0.0 | 3.2 | 0.00 | 1.22 | 1.22 | 99 | 1014.4 | |
| 20260420033516 | -2 | 315 | 1.6 | 4.8 | 0.00 | 1.22 | 1.22 | 98 | 1014.5 |
| 20260420033016 | -2 | 0.0 | 3.2 | 0.00 | 1.22 | 1.22 | 98 | 1014.5 | |
| 20260420032516 | -2 | 0.0 | 4.8 | 0.00 | 1.22 | 1.22 | 98 | 1014.5 | |
| 20260420032016 | -2 | 0.0 | 0.0 | 0.00 | 1.22 | 1.22 | 98 | 1014.4 | |
| 20260420031516 | -2 | 0.0 | 0.0 | 0.00 | 1.22 | 1.22 | 98 | 1014.3 | |
| 20260420031016 | -2 | 0.0 | 0.0 | 0.00 | 1.22 | 1.22 | 98 | 1014.3 | |
| 20260420030516 | -2 | 0.0 | 0.0 | 0.00 | 1.22 | 1.22 | 98 | 1014.3 | |
| 20260420030036 | -2 | 0.0 | 0.0 | 0.00 | 1.22 | 1.22 | 98 | 1014.2 | |
| 20260420025516 | -1 | 0.0 | 1.6 | 0.00 | 1.22 | 1.22 | 98 | 1014.2 | |
| 20260420025036 | -1 | 0.0 | 1.6 | 0.00 | 1.22 | 1.22 | 98 | 1014.3 | |
| 20260420024516 | -1 | 270 | 1.6 | 6.4 | 0.00 | 1.22 | 1.22 | 98 | 1014.2 |
| 20260420024016 | -1 | 0.0 | 3.2 | 0.00 | 1.22 | 1.22 | 98 | 1014.2 | |
| 20260420023516 | -1 | 0.0 | 1.6 | 0.00 | 1.22 | 1.22 | 98 | 1014.1 | |
| 20260420023016 | -1 | 0.0 | 1.6 | 0.00 | 1.22 | 1.22 | 98 | 1014.1 | |
| 20260420022516 | -1 | 0.0 | 0.0 | 0.00 | 1.22 | 1.22 | 98 | 1014.0 | |
| 20260420022016 | -1 | 0.0 | 1.6 | 0.00 | 1.22 | 1.22 | 98 | 1014.1 | |
| 20260420021516 | -1 | 0.0 | 4.8 | 0.00 | 1.22 | 1.22 | 98 | 1014.1 | |
| 20260420021036 | -1 | 315 | 1.6 | 8.0 | 0.00 | 1.22 | 1.22 | 98 | 1014.1 |
| 20260420020516 | -1 | 0.0 | 1.6 | 0.00 | 1.22 | 1.22 | 98 | 1014.0 | |
| 20260420020016 | -1 | 0.0 | 1.6 | 0.00 | 1.22 | 1.22 | 99 | 1013.9 | |
| 20260420015516 | -1 | 315 | 1.6 | 6.4 | 0.00 | 1.22 | 1.22 | 99 | 1013.7 |
| 20260420015016 | -1 | 315 | 1.6 | 6.4 | 0.00 | 1.22 | 1.22 | 99 | 1013.8 |
| 20260420014516 | -1 | 315 | 1.6 | 3.2 | 0.00 | 1.22 | 1.22 | 99 | 1013.6 |
| 20260420014016 | 0 | 0.0 | 3.2 | 0.00 | 1.22 | 1.22 | 99 | 1013.6 | |
| 20260420013516 | 0 | 293 | 1.6 | 4.8 | 0.00 | 1.22 | 1.22 | 99 | 1013.5 |
| 20260420013016 | -1 | 293 | 1.6 | 3.2 | 0.00 | 1.22 | 1.22 | 99 | 1013.5 |
| 20260420012516 | -1 | 315 | 1.6 | 4.8 | 0.00 | 1.22 | 1.22 | 99 | 1013.5 |
| 20260420012036 | -1 | 293 | 1.6 | 4.8 | 0.00 | 1.22 | 1.22 | 99 | 1013.5 |
| 20260420011516 | -1 | 0.0 | 3.2 | 0.00 | 1.22 | 1.22 | 99 | 1013.3 | |
| 20260420011016 | -1 | 0.0 | 3.2 | 0.00 | 1.22 | 1.22 | 99 | 1013.3 | |
| 20260420010516 | -1 | 315 | 3.2 | 8.0 | 0.00 | 1.22 | 1.22 | 99 | 1013.1 |